Madison, MN

5:21 AM CST on February 10, 2016 (GMT -0600)
Madison-Lac Qui Parle County | | Change Station
CLOSE
Current Station
Airport
Location: Madison,
Elevation: 1083 ft
Nearby Weather Stations

Elev 1083 ft 44.98 °N, 96.18 °W | Updated 8 minutes ago

Light Snow
Light Snow
10 °F
Feels Like -2 °F
N
8
Wind Variable Wind from ESE

Today
High -- | Low -- °F
--% Chance of Precip.
Yesterday
High -- | Low -- °F
Precip. -- in
Pressure 30.09 in
Visibility 1.8 miles
Clouds Mostly Cloudy 1000 ft
Windchill -2 °F
Dew Point 7 °F
Humidity 85%
Rainfall 0.00 in
Snow Depth Not available.
7:33 AM 5:44 PM
Waxing Crescent, 5% visible
METAR KDXX 101113Z AUTO 11007KT 1 3/4SM -SN BKN010 M12/M14 A3009 RMK AO2
Pressure 30.09 in
Visibility 1.8 miles
Clouds Mostly Cloudy 1000 ft
Windchill -2 °F
Dew Point 7 °F
Humidity 85%
Rainfall 0.00 in
Snow Depth Not available.
7:33 AM 5:44 PM
Waxing Crescent, 5% visible
METAR KDXX 101113Z AUTO 11007KT 1 3/4SM -SN BKN010 M12/M14 A3009 RMK AO2

10-Day Weather Forecast

Almanac

Astronomy

Feb. 10, 2016 Rise Set
Actual Time
Civil Twilight
Nautical Twilight
Astronomical Twilight
Moon
Length of Visible Light
Length of Day
Tomorrow will be .
, % of the Moon is Illuminated

Today's Extremes

State Highs State Lows

Community

WunderPhotos

Upload Photos

1,891,830 photos uploaded!

WunderBlog® & News

Nearby

Air Quality

  Air Quality AQ Index Pollutant
Not available.

Snow Depth

Station Depth Elevation

Earthquake Activity

City Distance Mag. Time & Date
Minimum magnitude displayed is 2.5.

Coastal Water Temperatures

Place Temperature

Stations

Nearby Weather Stations

Station Location Temp. Windchill Dew Point Humidity Wind Precip. Elev Updated Type
                   

Watches & Warnings

There are currently no watches in effect.